• Join FlightAware (Why Join?)
  • Login
  • US Flag 
02:08PM EDT


 

Airport Tracker/Info


-or-


 

Live Flight TrackerFlight Track Log ✈ SWA2852 ✈ 26-Apr-2013 ✈ KPHX - KSNA

Flight Track Log - Related Links

Times and Time Zones

All times are in EDT time to prevent confusion due to time zone crossing. See the SWA2852 flight status page for this flight to view local times or setup timezone preferences in your user account.

Time Position Orientation Groundspeed Altitude Reporting Facility
EDT Latitude Longitude Course Direction KTS MPH feet Rate Location/Type
12:00AM 33.4333 -112.0333 247° West 168 193 1,900  Level Phoenix TRACON
12:01AM 33.4228 -112.0631 247° West 168 193 3,000 1,680 Climbing Albuquerque Center
12:02AM 33.4008 -112.1325 249° West 218 251 4,900 2,400 Climbing Albuquerque Center
12:03AM 33.4036 -112.2233 272° West 269 310 8,000 2,820 Climbing Albuquerque Center
12:04AM 33.4111 -112.3186 275° West 285 328 10,700 2,520 Climbing Albuquerque Center
12:05AM 33.4217 -112.4339 276° West 346 398 13,200 3,060 Climbing Albuquerque Center
12:06AM 33.4317 -112.5586 276° West 372 428 17,000 3,480 Climbing Albuquerque Center
12:07AM 33.4419 -112.6775 276° West 371 427 20,300 3,000 Climbing Albuquerque Center
12:08AM 33.4517 -112.8028 275° West 376 433 23,100 2,820 Climbing Albuquerque Center
12:09AM 33.4786 -112.9558 282° West 391 450 26,100 2,700 Climbing Albuquerque Center
12:10AM 33.5042 -113.0869 283° West 401 461 28,600 2,520 Climbing Albuquerque Center
12:11AM 33.5286 -113.2150 283° West 399 459 31,200 1,620 Climbing Albuquerque Center
12:12AM 33.5517 -113.3417 282° West 393 452 31,900 360 Climbing Albuquerque Center
12:13AM 33.5753 -113.4686 283° West 393 452 32,000  Climbing Albuquerque Center
12:14AM 33.5986 -113.5925 283° West 387 445 31,900  Descending Albuquerque Center
12:15AM 33.6250 -113.7272 283° West 389 448 32,000  Climbing Albuquerque Center
12:16AM 33.6483 -113.8547 282° West 392 451 32,000  Level Albuquerque Center
12:17AM 33.6717 -113.9825 282° West 392 451 32,000  Level Albuquerque Center
12:18AM 33.6942 -114.1100 282° West 390 449 32,000 -60 Level Albuquerque Center
12:19AM 33.7164 -114.2281 283° West 392 451 31,900  Descending Albuquerque Center
12:20AM 33.7397 -114.3556 282° West 393 452 32,000 60 Climbing Albuquerque Center
12:20AM 33.7497 -114.4122 282° West 392 451 32,000  Level Los Angeles Center
12:22AM 33.7728 -114.5411 282° West 395 455 32,000  Level Los Angeles Center
12:23AM 33.7803 -114.6731 274° West 396 456 32,000 -60 Level Los Angeles Center
12:24AM 33.7886 -114.8047 274° West 397 457 31,900  Descending Los Angeles Center
12:25AM 33.7961 -114.9356 274° West 395 455 32,000  Climbing Los Angeles Center
12:26AM 33.8036 -115.0678 274° West 397 457 32,000  Level Los Angeles Center
12:27AM 33.8128 -115.2272 274° West 403 464 32,000  Level Los Angeles Center
12:28AM 33.8169 -115.3333 273° West 401 461 32,000  Level Los Angeles Center
12:29AM 33.8258 -115.4942 274° West 403 464 32,000 -60 Level Los Angeles Center
12:30AM 33.8322 -115.6281 273° West 403 464 31,900 -300 Descending Los Angeles Center
12:31AM 33.8392 -115.7631 274° West 404 465 31,500 -1,200 Descending Los Angeles Center
12:32AM 33.8450 -115.8914 273° West 388 447 29,500 -1,800 Descending Los Angeles Center
12:33AM 33.8500 -115.9908 273° West 381 438 27,900 -1,920 Descending Los Angeles Center
12:34AM 33.8567 -116.1367 273° West 369 425 25,600 -2,280 Descending Los Angeles Center
12:35AM 33.8631 -116.2750 273° West 351 404 23,300 -2,100 Descending Los Angeles Center
12:36AM 33.8681 -116.3881 273° West 344 396 21,300 -1,920 Descending Los Angeles Center
12:37AM 33.8742 -116.5003 274° West 340 391 19,500 -1,560 Descending Los Angeles Center
12:38AM 33.8772 -116.5881 272° West 334 384 18,200 -1,740 Descending Los Angeles Center
12:39AM 33.8839 -116.7208 273° West 334 384 16,000 -2,040 Descending Los Angeles Center
12:40AM 33.8889 -116.8308 273° West 333 383 14,100 -1,380 Descending Los Angeles Center
12:40AM 33.8833 -116.9000 264° West 324 373 14,000 -720 Descending Southern California TRACON
12:41AM 33.8667 -117.0000 259° West 329 379 13,100 -900 Descending Southern California TRACON
12:42AM 33.8606 -117.0469 261° West 329 379 12,600 -1,020 Descending Los Angeles Center
12:43AM 33.8425 -117.1686 260° West 324 373 11,500 -1,080 Descending Los Angeles Center
12:44AM 33.8264 -117.2725 259° West 318 366 10,500 -1,080 Descending Los Angeles Center
12:45AM 33.8117 -117.3711 260° West 302 348 9,300 -1,260 Descending Los Angeles Center
12:46AM 33.7986 -117.4672 261° West 293 337 8,000 -1,140 Descending Los Angeles Center
12:47AM 33.7858 -117.5569 260° West 280 322 7,000 -720 Descending Los Angeles Center
12:48AM 33.7947 -117.6414 277° West 263 303 6,600 -540 Descending Los Angeles Center
12:48AM 33.8167 -117.6833 302° West 239 275 6,300 -1,440 Descending Southern California TRACON
12:49AM 33.8333 -117.7500 287° West 230 265 4,700 -1,200 Descending Southern California TRACON
12:50AM 33.8500 -117.8167 287° West 200 230 4,000 -960 Descending Southern California TRACON
12:51AM 33.8167 -117.8333 203° Southwest 185 213 2,800 -900 Descending Southern California TRACON
12:53AM 33.7833 -117.8167 157° South 149 171 2,200 -720 Descending Southern California TRACON
12:54AM 33.7333 -117.8333 195° South 133 153 1,400 -780 Descending Southern California TRACON
12:55AM 33.7167 -117.8500 220° Southwest 120 138 700 -480 Descending Southern California TRACON
12:56AM 33.6583 -117.8786 202° Southwest 133 153 100 -360 Descending Los Angeles Center
12:58AM 33.6667 -117.8667 132° Southeast  Level FlightAware Approximate